Vertical_Velocity
-1 -3 -2 -2 -4 -4 -7 -3 -6 -3 -3 3 -1 -5 -6 -2 -4 -5 -3 -2 -1 -3
-2 -4 -5 -4 -7 -9 -8 -7 -4 1 1 1 -1 -4 -1 -4 2 -2 -0 -2 -1 -3
-5 -5 -5 -3 -2 -1 -1 -5 -4 -2 -3 -3 0 -3 -1 -4 5 -2 4 -2 -2 2
-1 -2 -3 -2 1 1 1 -1 -4 -3 -3 1 -2 4 -2 -1 -3 -2 -1 2 -2 1
-1 0 1 2 -2 -7 -3 -1 -2 -4 -2 -5 -1 -1 -2 -2 0 -3 -1 1 -2 2
-1 -4 1 -1 -1 1 -2 4 0 -2 0 -5 -3 -3 -1 -3 -2 -2 -3 -1 -1 2
-4 -1 -1 -2 2 -1 4 -5 -5 2 -1 -1 -5 -1 -2 -2 -2 -0 1 0 0 2
-3 -3 -2 1 -2 -7 -2 -7 -3 -5 1 -3 -4 -1 -4 -5 -6 -6 -4 -2 0 1
-4 -8 -2 -4 -2 -2 -1 -4 -1 -2 -1 -6 -2 -2 -2 -2 -3 -2 -3 -2 -1 -2
-4 -1 -6 -7 0 -1 3 -4 -3 2 -1 -6 1 -1 -2 -2 0 -2 -2 -0 1 -0
-7 -6 -2 -4 1 5 -9 -6 -1 1 -3 -4 2 -4 4 3 -2 1 3 3 2 -0
-8 -5 -2 2 -4 -6 -4 -3 1 2 -7 -3 -1 3 2 1 -2 2 2 2 3 2
-3 -5 -3 -5 5 -10 -3 -0 -4 -2 -1 5 -2 5 -2 4 -0 1 -2 2 0 2
-6 -5 -4 -1 -4 -4 -2 -1 2 -5 4 2 -2 -5 -0 1 -0 1 -4 -1 1 2
Height
3063 3057 3052 3045 3039 3034 3028 3021 3015 3009 3003 2998 2992 2988 2984 2978 2974 2969 2966 2962 2958 2953
3055 3048 3041 3036 3030 3023 3017 3009 3003 2998 2990 2985 2979 2974 2967 2964 2959 2954 2950 2947 2943 2938
3043 3037 3032 3026 3020 3013 3007 3000 2993 2986 2981 2975 2968 2961 2954 2949 2945 2938 2935 2931 2927 2924
3032 3027 3022 3014 3007 3001 2994 2987 2982 2976 2971 2963 2956 2949 2942 2936 2930 2924 2920 2917 2912 2908
3023 3017 3010 3004 2997 2991 2983 2978 2970 2963 2956 2950 2944 2936 2929 2921 2916 2910 2904 2900 2896 2892
3012 3006 2999 2993 2986 2979 2971 2965 2959 2953 2944 2937 2931 2923 2916 2908 2902 2896 2891 2885 2879 2875
3002 2996 2990 2982 2973 2967 2959 2953 2947 2941 2933 2924 2918 2911 2902 2895 2888 2882 2876 2870 2864 2859
2993 2987 2979 2971 2963 2956 2949 2943 2936 2929 2921 2914 2907 2898 2890 2883 2873 2864 2856 2851 2846 2844
2982 2976 2968 2962 2955 2949 2941 2934 2928 2919 2910 2904 2897 2888 2882 2873 2863 2854 2847 2841 2836 2830
2973 2967 2961 2954 2948 2940 2933 2924 2918 2909 2901 2894 2888 2880 2871 2862 2852 2843 2837 2831 2825 2820
2965 2961 2955 2948 2940 2931 2923 2916 2907 2899 2893 2885 2880 2870 2862 2852 2841 2834 2827 2821 2815 2809
2959 2952 2946 2938 2929 2924 2915 2908 2901 2892 2884 2876 2871 2863 2854 2842 2832 2823 2815 2810 2804 2798
2952 2946 2939 2934 2923 2913 2907 2900 2892 2886 2878 2870 2862 2854 2843 2834 2823 2812 2804 2798 2790 2785
2947 2940 2934 2926 2918 2907 2900 2894 2886 2878 2871 2864 2852 2845 2836 2827 2815 2804 2793 2785 2777 2773